Weather observations for the past three days for
Buckland, Buckland Airport
Imperial (Metric)
Date Time (akdt) Wind (mph) Vis. (mi.) Weather Sky Cond. Temperature (ºF) Relative Humidity Wind Chill (°F) Heat Index (°F) Pressure Precipitation (in)
Air Dwpt 6 hour altimeter (in) sea level (mb) 1 hr 3 hr 6 hr
Max. Min.
15 15:56 S 9 10.00 Overcast OVC055 57.9 39.9 59 48.9 51% 29.65 1004.1
15 14:56 SE 8 10.00 Overcast OVC043 57 39.9 53% 29.65 1004.2
15 13:56 SE 10 10.00 Overcast OVC043 57 41 55% 29.64 1003.9
15 12:56 Vrbl 7 10.00 A Few Clouds FEW037 57 39.9 53% 29.63 1003.6
15 10:56 S 6 10.00 Fair CLR 54 42.1 64% 29.64 1003.7
15 09:56 SE 6 10.00 Fair CLR 48.9 41 48.9 37 74% 47 29.64 1003.8
15 08:56 SE 7 10.00 Fair CLR 43 39.9 89% 39 29.63 1003.6
15 07:56 SE 3 10.00 Fair CLR 41 39 93% 29.62 1003.2
15 06:56 SE 5 10.00 A Few Clouds FEW055 39 37 93% 36 29.61 1002.7
15 05:56 SE 7 10.00 Fair CLR 39 37 93% 35 29.6 1002.4
15 04:56 SE 7 10.00 Fair CLR 37 36 96% 32 29.6 1002.3
15 03:56 S 6 10.00 Fair CLR 39.9 37.9 57 39 93% 36 29.58 1001.8
15 02:56 E 6 10.00 Fair CLR 39.9 37.9 93% 36 29.57 1001.4
15 01:56 SE 6 10.00 Fair CLR 44.1 41 89% 41 29.56 1001.2
15 00:56 E 6 10.00 Fair CLR 46.9 43 86% 45 29.54 1000.6
14 23:56 S 7 10.00 Partly Cloudy SCT055 48.9 42.1 77% 46 29.52 999.9
14 22:56 S 7 10.00 Fair CLR 54 42.1 64% 29.51 999.4
14 21:56 S 8 10.00 A Few Clouds FEW055 57.9 39.9 63 57 51% 29.49 998.7
14 20:56 S 12 10.00 Mostly Cloudy FEW046 BKN060 59 41 51% 29.46 997.8
14 19:56 SE 12 10.00 Mostly Cloudy FEW047 BKN060 62.1 43 50% 29.45 997.3
14 18:56 S 12 10.00 Fair CLR 62.1 43 50% 29.42 996.4
14 17:56 S 14 G 20 10.00 Fair CLR 63 43 48% 29.41 996.0
14 16:56 S 9 10.00 Overcast BKN042 BKN049 OVC055 61 44.1 54% 29.4 995.7
14 15:56 S 10 G 17 10.00 Overcast FEW027 SCT039 OVC060 62.1 48 63 55 60% 29.39 995.3 0.01
14 14:56 S 12 G 18 10.00 Mostly Cloudy FEW029 BKN055 61 50 67% 29.38 994.9
14 13:56 SE 17 G 22 10.00 Overcast BKN029 BKN033 OVC060 62.1 50 65% 29.35 994.1
14 12:56 S 12 10.00 Light Rain SCT050 BKN060 55.9 52 87% 29.35 993.9 0.01
14 11:56 SE 9 10.00 Mostly Cloudy BKN011 BKN055 57.9 52 81% 29.34 993.6
14 10:56 SE 5 10.00 Light Rain OVC011 55.9 54 93% 29.33 993.5 0.01
14 09:56 Calm 10.00 Light Rain OVC020 55 53.1 55 52 93% 29.33 993.2 0.03 0.19
14 08:56 N 6 10.00 Light Rain OVC024 54 52 93% 29.33 993.3 0.02
14 07:56 N 6 10.00 Light Rain OVC019 53.1 52 96% 29.34 993.8 0.05
14 06:56 NW 7 10.00 Light Rain FEW030 BKN037 OVC045 53.1 52 96% 29.35 994.1 0.03 0.09
14 04:56 NW 7 10.00 Light Rain SCT049 OVC060 52 51.1 97% 29.38 995.1 0.01
14 03:56 NW 8 10.00 Light Rain OVC048 52 51.1 55 52 97% 29.4 995.8 0.02 0.09
14 02:56 NW 6 10.00 Light Rain FEW035 OVC050 52 51.1 97% 29.42 996.5 0.04
14 01:56 NW 7 10.00 Light Rain FEW050 OVC060 52 51.1 97% 29.44 997.1 0.02
14 00:56 NW 7 10.00 Light Rain SCT048 53.1 51.1 93% 29.45 997.4 0.01 0.01
13 23:56 NW 3 10.00 Light Rain OVC046 53.1 50 89% 29.46 997.8
13 22:56 NW 5 10.00 Mostly Cloudy BKN050 54 50 87% 29.47 998.1
13 21:56 NW 5 10.00 Fair CLR 55 52 63 55 90% 29.48 998.5 0.02
13 20:56 NW 7 10.00 Light Rain FEW034 BKN045 OVC075 55 51.1 87% 29.49 998.9 0.02
13 19:56 N 7 10.00 Fair CLR 61 45 56% 29.5 999.0
13 18:56 Calm 10.00 Mostly Cloudy BKN044 60.1 44.1 56% 29.5 999.0
13 17:56 S 3 10.00 Partly Cloudy FEW045 SCT065 61 44.1 54% 29.5 999.2
13 16:56 S 9 10.00 A Few Clouds FEW070 61 45 56% 29.51 999.5
13 15:56 S 12 10.00 Fair CLR 59 45 60.1 54 60% 29.52 999.9
13 14:56 S 12 10.00 Fair CLR 59 46.9 64% 29.52 999.8
13 13:56 SE 16 G 22 10.00 Partly Cloudy SCT031 59 46 62% 29.52 999.8
13 12:56 S 16 G 22 10.00 Mostly Cloudy FEW023 BKN030 BKN065 57 46.9 69% 29.53 1000.0
13 11:56 SE 21 G 29 10.00 Partly Cloudy and Breezy SCT065 55 46 72% 29.52 999.6
13 10:56 S 16 G 22 10.00 Mostly Cloudy FEW030 BKN060 57 46 67% 29.51 999.3
13 09:56 S 16 10.00 Mostly Cloudy BKN030 BKN035 55.9 46 57 52 70% 29.49 998.7
13 08:56 SE 10 10.00 Partly Cloudy SCT037 57 48 72% 29.48 998.3
13 07:56 SE 16 10.00 Mostly Cloudy BKN042 54 48 80% 29.47 998.1
13 06:56 SE 10 10.00 Mostly Cloudy SCT034 BKN044 BKN055 52 48 86% 29.47 998.0
13 05:56 E 10 10.00 Overcast BKN028 OVC080 52 48 86% 29.46 997.7
13 04:56 SE 16 10.00 Overcast SCT046 OVC090 52 48 86% 29.46 997.9
13 03:56 E 13 G 20 10.00 Mostly Cloudy BKN046 BKN065 52 48.9 57 52 89% 29.46 997.7 0.08
13 02:56 E 10 10.00 Light Rain SCT047 OVC060 52 48.9 89% 29.47 998.0
13 01:56 E 14 10.00 Light Rain FEW041 53.1 48.9 86% 29.48 998.3 0.01
13 00:56 E 9 10.00 Light Rain CLR 53.1 51.1 93% 29.49 998.7 0.01 0.07
12 23:56 E 8 10.00 Light Rain SCT070 54 51.1 90% 29.49 998.9
12 22:56 E 6 10.00 Light Rain OVC041 54 51.1 90% 29.5 999.0 0.06
12 21:56 E 3 10.00 Light Rain FEW050 57 54 66 55.9 90% 29.51 999.4
12 20:56 E 7 10.00 Light Rain CLR 57 53.1 87% 29.52 999.9
12 19:56 Calm 10.00 Fair CLR 57 52 83% 29.54 1000.6
12 18:56 SE 9 10.00 Light Rain BKN038 BKN055 55.9 50 81% 29.56 1001.1
12 17:56 E 10 10.00 Light Rain FEW037 59 52 78% 29.57 1001.4
12 16:56 E 15 10.00 Fair CLR 61 50 67% 29.59 1002.2
Date Time (akdt) Wind (mph) Vis. (mi.) Weather Sky Cond. Air Dwpt Max. Min. Relative Humidity Wind Chill (°F) Heat Index (°F) altimeter (in) sea level (mb) 1 hr 3 hr 6 hr
6 hour
Temperature (ºF) Pressure Precipitation (in)